星链-34435 (STARLINK-34435)

导读 | 豆包AI

STARLINK-34435是美国SpaceX公司星链星座第二代卫星,于2025年6月25日发射入轨,部署在340-360公里的超低近地轨道,属于星链二代扩容组网的组成部分。它配备相控阵天线与激光星间链路,单星容量达100Gbps,支持手机直连卫星服务,可为全球尤其是偏远地区、海洋、航空提供高速低时延宽带互联网接入,助力星链实现全球覆盖的天基通信网络建设。

基本信息
目录编号:
64602
目录名称:
STARLINK-34435
国际标识:
2025-137J
轨道中心:
EARTH
卫星名称:
星链-34435
卫星全名:
星链-34435 (STARLINK-34435)
卫星状态:
在轨 (已飞行308 天)
发射日期:
2025-06-25 UTC
国别 :
美国 (US)
星等 :
--
轨道信息
数据来源 国际轨道数据
星历时间: 2026-04-29T13:53:50+0800
8小时前
查看轨道信息
半长轴: 6853.309km
偏心率: 0.0001513
轨道倾角: 53.158°
近地点辐角 64.866°
升交点赤经 100.518°
平近点角 295.250°
近地点: 474.135km
远地点: 476.209km
周期: 94.104分钟
每日圈数: 15.302145
详细信息
固有亮度:
5
最大亮度:
2.5
卫星平台:
Starlink V1.0
覆盖范围:
全球
运营商:
太空探索技术公司
运营商所在国:
美国
制造商(研发单位):
太空探索技术公司
制造商所在国:
美国
使用方式:
暂无
卫星简介
Starlink 计划是 SpaceX 推出的全球卫星互联网项目,通过发射低轨道卫星,为全球尤其是偏远地区提供高速、低延迟的互联网服务。自 2019 年起,Starlink 已部署数千颗卫星,旨在缩小全球数字鸿沟,推动互联网普及。该项目还为军事、航空等行业提供通信支持,带来广泛经济效益。
2D轨道图
3D轨道图
轨道高度分析图
轨道倾角分析图
轨道综合分析图
查看轨道综合分析图